Hourly Weather Godzimierz

Today, 17 May, Monday

Time Temperature Precipitation Wind Pressure Humidity
00:00 +8°C° 0 mm 2 mps 738 mmHg 93%
01:00 +8°C° 0 mm 2 mps 738 mmHg 93%
02:00 +7°C° 0 mm 2 mps 738 mmHg 94%
03:00 +7°C° 0 mm 2 mps 738 mmHg 94%
04:00 +7°C° 0 mm 2 mps 738 mmHg 95%
05:00 +8°C° 0 mm 2 mps 738 mmHg 91%
06:00 +10°C° 0 mm 3 mps 738 mmHg 88%
07:00 +11°C° 0 mm 3 mps 738 mmHg 85%
08:00 +13°C° 0.2 mm 3 mps 738 mmHg 77%
09:00 +14°C° 0.2 mm 3 mps 738 mmHg 70%
10:00 +17°C° 0.2 mm 2 mps 738 mmHg 62%
11:00 +17°C° 0.3 mm 3 mps 739 mmHg 59%
12:00 +18°C° 0.3 mm 3 mps 739 mmHg 56%
13:00 +19°C° 0.3 mm 3 mps 739 mmHg 53%
14:00 +18°C° 0.4 mm 2 mps 739 mmHg 57%
15:00 +18°C° 0.4 mm 2 mps 739 mmHg 61%
16:00 +17°C° 0.4 mm 2 mps 739 mmHg 65%
17:00 +16°C° 0.4 mm 2 mps 739 mmHg 72%
18:00 +15°C° 0.4 mm 2 mps 739 mmHg 79%
19:00 +14°C° 0.4 mm 1 mps 739 mmHg 86%
20:00 +13°C° 0 mm 1 mps 739 mmHg 88%
21:00 +12°C° 0 mm 1 mps 739 mmHg 90%
22:00 +12°C° 0 mm 1 mps 739 mmHg 92%
23:00 +11°C° 0 mm 1 mps 739 mmHg 93%

Tomorrow, 18 May, Tuesday

Time Temperature Precipitation Wind Pressure Humidity
00:00 +11°C° 0 mm 1 mps 740 mmHg 94%
01:00 +10°C° 0 mm 2 mps 740 mmHg 95%
02:00 +10°C° 0 mm 2 mps 740 mmHg 95%
03:00 +9°C° 0 mm 2 mps 740 mmHg 95%
04:00 +9°C° 0 mm 2 mps 740 mmHg 96%
05:00 +10°C° 0 mm 2 mps 740 mmHg 93%
06:00 +10°C° 0 mm 2 mps 741 mmHg 89%
07:00 +12°C° 0 mm 2 mps 741 mmHg 86%
08:00 +13°C° 0.1 mm 2 mps 741 mmHg 80%
09:00 +13°C° 0.1 mm 3 mps 741 mmHg 75%
10:00 +14°C° 0.1 mm 3 mps 741 mmHg 69%
11:00 +14°C° 0.4 mm 3 mps 741 mmHg 70%
12:00 +14°C° 0.4 mm 3 mps 742 mmHg 71%
13:00 +14°C° 0.4 mm 3 mps 742 mmHg 72%
14:00 +14°C° 0.3 mm 3 mps 742 mmHg 72%
15:00 +14°C° 0.3 mm 3 mps 742 mmHg 72%
16:00 +14°C° 0.3 mm 3 mps 742 mmHg 72%
17:00 +13°C° 0.2 mm 3 mps 742 mmHg 77%
18:00 +13°C° 0.2 mm 2 mps 743 mmHg 81%
19:00 +13°C° 0.2 mm 2 mps 743 mmHg 85%
20:00 +10°C° 0 mm 2 mps 743 mmHg 89%
21:00 +9°C° 0 mm 2 mps 743 mmHg 93%
22:00 +8°C° 0 mm 2 mps 744 mmHg 96%
23:00 +7°C° 0 mm 2 mps 744 mmHg 96%

Day after tomorrow, 19 May, Wednesday

Time Temperature Precipitation Wind Pressure Humidity
00:00 +7°C° 0 mm 2 mps 744 mmHg 97%
01:00 +7°C° 0 mm 2 mps 744 mmHg 97%
02:00 +6°C° 0 mm 2 mps 744 mmHg 96%
03:00 +6°C° 0 mm 2 mps 744 mmHg 96%
04:00 +6°C° 0 mm 2 mps 744 mmHg 96%
05:00 +7°C° 0 mm 2 mps 744 mmHg 91%
06:00 +9°C° 0 mm 3 mps 745 mmHg 86%
07:00 +10°C° 0 mm 3 mps 745 mmHg 81%
08:00 +12°C° 0.1 mm 3 mps 745 mmHg 74%
09:00 +13°C° 0.1 mm 3 mps 745 mmHg 68%
10:00 +14°C° 0.1 mm 4 mps 745 mmHg 62%
11:00 +14°C° 0.3 mm 4 mps 745 mmHg 65%
12:00 +13°C° 0.3 mm 4 mps 745 mmHg 68%
13:00 +13°C° 0.3 mm 4 mps 746 mmHg 71%
14:00 +13°C° 0.1 mm 4 mps 746 mmHg 69%
15:00 +13°C° 0.1 mm 4 mps 746 mmHg 67%
16:00 +13°C° 0.1 mm 4 mps 746 mmHg 64%
17:00 +12°C° 0 mm 4 mps 746 mmHg 66%
18:00 +11°C° 0 mm 4 mps 747 mmHg 67%
19:00 +10°C° 0 mm 3 mps 747 mmHg 69%
20:00 +8°C° 0 mm 3 mps 747 mmHg 75%
21:00 +7°C° 0 mm 2 mps 747 mmHg 81%
22:00 +6°C° 0 mm 2 mps 747 mmHg 87%
23:00 +5°C° 0 mm 2 mps 747 mmHg 88%

20 May, Thursday

Time Temperature Precipitation Wind Pressure Humidity
00:00 +5°C° 0 mm 2 mps 748 mmHg 88%
01:00 +5°C° 0 mm 2 mps 748 mmHg 89%
02:00 +5°C° 0 mm 2 mps 748 mmHg 90%
03:00 +4°C° 0 mm 2 mps 748 mmHg 91%
04:00 +4°C° 0 mm 2 mps 748 mmHg 92%
05:00 +6°C° 0 mm 2 mps 748 mmHg 85%
06:00 +8°C° 0 mm 3 mps 748 mmHg 78%
07:00 +10°C° 0 mm 3 mps 748 mmHg 71%
08:00 +12°C° 0 mm 4 mps 748 mmHg 65%
09:00 +13°C° 0 mm 4 mps 748 mmHg 59%
10:00 +14°C° 0 mm 5 mps 748 mmHg 53%
11:00 +14°C° 0.1 mm 5 mps 749 mmHg 54%
12:00 +14°C° 0.1 mm 6 mps 749 mmHg 55%
13:00 +14°C° 0.1 mm 6 mps 749 mmHg 55%
14:00 +13°C° 0 mm 6 mps 749 mmHg 56%
15:00 +11°C° 0 mm 6 mps 749 mmHg 56%
16:00 +11°C° 0 mm 6 mps 749 mmHg 56%
17:00 +10°C° 0 mm 6 mps 749 mmHg 61%
18:00 +9°C° 0 mm 5 mps 749 mmHg 65%
19:00 +8°C° 0 mm 5 mps 749 mmHg 70%
20:00 +7°C° 0 mm 4 mps 749 mmHg 74%
21:00 +6°C° 0 mm 4 mps 749 mmHg 78%
22:00 +5°C° 0 mm 4 mps 749 mmHg 82%
23:00 +5°C° 0 mm 4 mps 749 mmHg 83%

21 May, Friday

Time Temperature Precipitation Wind Pressure Humidity
00:00 +4°C° 0 mm 4 mps 749 mmHg 85%
01:00 +4°C° 0 mm 4 mps 749 mmHg 86%
02:00 +3°C° 0 mm 4 mps 749 mmHg 89%
03:00 +3°C° 0 mm 4 mps 749 mmHg 91%
04:00 +3°C° 0 mm 4 mps 749 mmHg 94%
05:00 +4°C° 0 mm 4 mps 749 mmHg 87%
06:00 +5°C° 0 mm 5 mps 748 mmHg 81%
07:00 +5°C° 0 mm 6 mps 748 mmHg 74%
08:00 +7°C° 0 mm 6 mps 748 mmHg 70%
09:00 +8°C° 0 mm 6 mps 748 mmHg 66%
10:00 +9°C° 0 mm 6 mps 748 mmHg 61%
11:00 +9°C° 0 mm 5 mps 748 mmHg 60%
12:00 +10°C° 0 mm 5 mps 748 mmHg 58%
13:00 +12°C° 0 mm 5 mps 748 mmHg 56%
14:00 +12°C° 0 mm 4 mps 747 mmHg 58%
15:00 +12°C° 0 mm 3 mps 747 mmHg 60%
16:00 +12°C° 0 mm 3 mps 747 mmHg 62%
17:00 +13°C° 0 mm 2 mps 747 mmHg 66%
18:00 +12°C° 0 mm 2 mps 746 mmHg 70%
19:00 +12°C° 0 mm 1 mps 746 mmHg 74%
20:00 +10°C° 0 mm 2 mps 746 mmHg 76%
21:00 +9°C° 0 mm 2 mps 745 mmHg 77%
22:00 +9°C° 0 mm 2 mps 745 mmHg 79%
23:00 +9°C° 0 mm 2 mps 745 mmHg 79%

22 May, Saturday

Time Temperature Precipitation Wind Pressure Humidity
00:00 +9°C° 0 mm 2 mps 745 mmHg 79%
01:00 +9°C° 0 mm 2 mps 744 mmHg 79%
02:00 +9°C° 0 mm 2 mps 744 mmHg 80%
03:00 +9°C° 0 mm 3 mps 744 mmHg 81%
04:00 +9°C° 0 mm 3 mps 743 mmHg 81%
05:00 +10°C° 0.1 mm 3 mps 743 mmHg 83%
06:00 +10°C° 0.1 mm 4 mps 743 mmHg 84%
07:00 +11°C° 0.1 mm 4 mps 742 mmHg 85%
08:00 +13°C° 0 mm 5 mps 742 mmHg 78%
09:00 +14°C° 0 mm 5 mps 742 mmHg 70%
10:00 +16°C° 0 mm 6 mps 742 mmHg 63%
11:00 +15°C° 0.3 mm 5 mps 742 mmHg 68%
12:00 +14°C° 0.3 mm 4 mps 742 mmHg 73%
13:00 +14°C° 0.3 mm 4 mps 742 mmHg 78%
14:00 +14°C° 0.7 mm 4 mps 742 mmHg 79%
15:00 +14°C° 0.7 mm 4 mps 742 mmHg 81%
16:00 +14°C° 0.7 mm 4 mps 742 mmHg 82%
17:00 +13°C° 0.7 mm 3 mps 743 mmHg 85%
18:00 +12°C° 0.7 mm 3 mps 743 mmHg 87%
19:00 +12°C° 0.7 mm 2 mps 743 mmHg 89%
20:00 +10°C° 0.1 mm 2 mps 743 mmHg 90%
21:00 +10°C° 0.1 mm 1 mps 744 mmHg 91%
22:00 +9°C° 0.1 mm 1 mps 744 mmHg 92%
23:00 +9°C° 0 mm 1 mps 744 mmHg 93%
Show more